CW4185 Weather Reports


Display with metric or nautical units.
time (UTC)temp
F
wind
direction
speed
MPH
gust
MPH
rain 1hr
in
rain 24hr
in
rain mn
in
humidity
%
barometer
mb
20260508080646 72 65 3.0 5.0 0.00 0.00 0.00 89 1012.9
20260508080147 72 50 3.0 5.0 0.00 0.00 0.00 88 1012.9
20260508075648 72 80 3.0 4.0 0.00 0.00 0.00 88 1012.9
20260508075149 72 58 3.0 7.0 0.00 0.00 0.00 88 1013.2
20260508074646 72 47 5.0 6.0 0.00 0.00 0.00 88 1013.2
20260508074147 72 37 2.0 4.0 0.00 0.00 0.00 88 1013.2
20260508073648 72 7 3.0 8.0 0.00 0.00 0.00 88 1012.9
20260508073151 72 39 4.0 6.0 0.00 0.00 0.00 89 1012.9
20260508072646 72 64 4.0 7.0 0.00 0.00 0.00 89 1012.9
20260508072147 72 74 3.0 6.0 0.00 0.00 0.00 89 1012.5
20260508071646 72 61 2.0 4.0 0.00 0.00 0.00 88 1012.5
20260508071147 72 36 2.0 6.0 0.00 0.00 0.00 88 1012.9
20260508070646 72 44 2.0 5.0 0.00 0.00 0.00 88 1012.9
20260508070148 73 51 3.0 6.0 0.00 0.00 0.00 88 1012.9
20260508065646 72 37 2.0 6.0 0.00 0.00 0.00 88 1012.9
20260508065149 72 38 1.0 4.0 0.00 0.00 0.00 88 1012.9
20260508064650 72 10 3.0 6.0 0.00 0.00 0.00 88 1013.2
20260508064151 73 358 3.0 4.0 0.00 0.00 0.00 87 1013.2
20260508063649 72 35 0.0 4.0 0.00 0.00 0.00 88 1012.9
20260508063150 72 29 2.0 3.0 0.00 0.00 0.00 88 1013.2
20260508062646 72 67 4.0 4.0 0.00 0.00 0.00 88 1013.2
20260508062150 73 25 2.0 4.0 0.00 0.00 0.00 87 1013.2
20260508061646 72 24 1.0 4.0 0.00 0.00 0.00 88 1013.5
20260508061150 72 69 2.0 4.0 0.00 0.00 0.00 88 1013.2
20260508060649 72 64 3.0 4.0 0.00 0.00 0.00 88 1013.5
20260508060148 72 48 2.0 5.0 0.00 0.00 0.00 88 1013.2
20260508055646 72 22 2.0 5.0 0.00 0.00 0.00 88 1013.5
20260508055147 72 54 3.0 3.0 0.00 0.00 0.00 88 1013.5
20260508054648 73 22 4.0 5.0 0.00 0.00 0.00 87 1013.5
20260508054146 72 57 3.0 6.0 0.00 0.00 0.00 88 1013.5
20260508053650 72 26 3.0 5.0 0.00 0.00 0.00 88 1013.9
20260508053150 72 51 5.0 7.0 0.00 0.00 0.00 88 1013.5
20260508052648 72 43 5.0 8.0 0.00 0.00 0.00 88 1013.5
20260508052149 72 45 4.0 8.0 0.00 0.00 0.00 88 1013.5
20260508051647 72 71 6.0 7.0 0.00 0.00 0.00 88 1013.9
20260508051150 73 45 2.0 5.0 0.00 0.00 0.00 87 1013.9
20260508050649 73 34 1.0 3.0 0.00 0.00 0.00 87 1013.9
20260508050149 73 32 5.0 5.0 0.00 0.00 0.00 88 1013.9
20260508045647 72 66 2.0 5.0 0.00 0.00 0.02 88 1013.9
20260508044719 73 40 2.0 6.0 0.00 0.00 0.02 88 1013.9
20260508044147 72 47 3.0 5.0 0.00 0.00 0.02 89 1013.9
20260508043647 72 59 5.0 7.0 0.00 0.00 0.02 88 1014.2
20260508043149 73 39 3.0 6.0 0.00 0.00 0.02 87 1014.2
20260508042647 73 51 3.0 5.0 0.00 0.00 0.02 88 1014.2
20260508042147 73 62 3.0 9.0 0.00 0.00 0.02 88 1014.2
20260508041647 73 358 3.0 9.0 0.00 0.00 0.02 88 1014.2
20260508041146 73 28 3.0 7.0 0.00 0.00 0.02 87 1014.2
20260508040650 73 359 4.0 7.0 0.00 0.00 0.02 87 1014.2
20260508040148 73 358 4.0 6.0 0.00 0.00 0.02 88 1014.2
20260508035646 73 56 6.0 10.0 0.00 0.00 0.02 87 1014.2
20260508035147 73 30 6.0 8.0 0.00 0.00 0.02 87 1014.6
20260508034648 73 45 4.0 9.0 0.00 0.00 0.02 87 1014.2
20260508034146 73 20 3.0 10.0 0.00 0.00 0.02 87 1014.6
20260508033648 74 3 2.0 5.0 0.00 0.00 0.02 87 1014.6
20260508033152 74 7 3.0 5.0 0.00 0.00 0.02 86 1014.6
20260508032646 74 52 3.0 7.0 0.00 0.00 0.02 85 1014.2
20260508032148 74 19 5.0 9.0 0.00 0.00 0.02 85 1014.2
20260508031646 74 42 5.0 10.0 0.00 0.00 0.02 85 1014.2
20260508031147 74 17 4.0 9.0 0.00 0.00 0.02 84 1014.2
20260508030647 75 353 5.0 9.0 0.00 0.00 0.02 83 1014.2
20260508030147 75 0 3.0 6.0 0.00 0.00 0.02 83 1014.2
20260508025648 75 24 4.0 9.0 0.00 0.00 0.02 83 1013.9
20260508025150 75 33 3.0 9.0 0.00 0.00 0.02 83 1013.9
20260508024646 75 26 2.0 5.0 0.00 0.00 0.02 83 1013.9
20260508024147 75 29 5.0 8.0 0.00 0.00 0.02 83 1013.9
20260508023647 75 38 5.0 9.0 0.00 0.00 0.02 83 1013.9
20260508023148 76 33 7.0 9.0 0.00 0.00 0.02 83 1014.2
20260508022331 76 5 2.0 7.0 0.00 0.00 0.02 83 1013.9
20260508021646 76 35 6.0 7.0 0.00 0.00 0.02 83 1013.9
20260508021146 76 19 5.0 8.0 0.00 0.00 0.02 82 1013.5
20260508020647 76 306 0.0 5.0 0.00 0.00 0.02 82 1013.9
20260508020148 76 16 2.0 6.0 0.00 0.00 0.02 81 1013.5
20260508015646 76 338 3.0 6.0 0.00 0.00 0.02 82 1013.9
20260508015146 76 28 3.0 8.0 0.00 0.00 0.02 82 1013.5
20260508014646 76 31 3.0 6.0 0.00 0.00 0.02 82 1013.2
20260508014147 76 347 3.0 5.0 0.00 0.00 0.02 82 1013.2
20260508013648 76 23 6.0 7.0 0.00 0.00 0.02 82 1013.2
20260508013147 76 35 3.0 5.0 0.00 0.00 0.02 82 1013.5
20260508012647 76 50 5.0 7.0 0.00 0.00 0.02 83 1013.5
20260508012146 76 2 3.0 4.0 0.00 0.00 0.02 84 1013.2
20260508011647 76 36 6.0 7.0 0.00 0.00 0.02 84 1013.2
20260508011147 76 38 4.0 8.0 0.00 0.00 0.02 84 1013.2
20260508010650 76 52 6.0 7.0 0.00 0.00 0.02 84 1012.9
20260508010147 76 36 2.0 6.0 0.00 0.00 0.02 84 1013.2
20260508005646 76 343 2.0 4.0 0.00 0.00 0.02 84 1013.2
20260508005147 76 28 4.0 7.0 0.00 0.00 0.02 85 1012.9
20260508004646 76 21 7.0 7.0 0.00 0.00 0.02 85 1013.2
20260508004146 76 20 3.0 7.0 0.00 0.00 0.02 85 1012.9
20260508003650 76 42 3.0 6.0 0.00 0.00 0.02 86 1012.9
20260508003146 76 35 4.0 6.0 0.00 0.00 0.02 85 1012.9
20260508002647 76 17 4.0 7.0 0.00 0.00 0.02 85 1012.9
20260508002146 76 350 2.0 5.0 0.00 0.00 0.02 85 1012.9
20260508001647 76 35 2.0 3.0 0.00 0.00 0.02 85 1012.9
20260508001146 76 46 2.0 5.0 0.00 0.00 0.02 84 1012.9
20260508000646 76 50 4.0 5.0 0.00 0.00 0.02 84 1012.9
20260508000147 76 29 3.0 6.0 0.00 0.00 0.02 83 1012.9
20260507235647 76 8 3.0 4.0 0.00 0.00 0.02 84 1012.5
20260507235146 76 354 0.0 4.0 0.00 0.00 0.02 84 1012.9
20260507234647 76 7 2.0 5.0 0.00 0.00 0.02 83 1012.9
20260507234146 76 48 3.0 7.0 0.00 0.00 0.02 83 1012.9
20260507233647 77 322 4.0 5.0 0.00 0.00 0.02 82 1012.9
20260507233148 76 338 3.0 6.0 0.00 0.00 0.02 83 1012.9
20260507232648 76 1 4.0 5.0 0.00 0.00 0.02 82 1012.9
20260507232147 77 357 2.0 7.0 0.00 0.00 0.02 82 1012.9
20260507231647 77 33 4.0 6.0 0.00 0.00 0.02 81 1012.9
20260507231147 77 338 4.0 6.0 0.00 0.00 0.02 81 1012.9
20260507230647 77 353 3.0 5.0 0.00 0.00 0.02 81 1012.9
20260507230147 77 3 3.0 6.0 0.00 0.00 0.02 81 1012.9
20260507225647 77 308 2.0 5.0 0.00 0.00 0.02 80 1012.9
20260507225147 77 331 6.0 7.0 0.00 0.00 0.02 80 1012.9
20260507224646 77 336 6.0 7.0 0.00 0.00 0.02 80 1012.9
20260507224146 78 305 2.0 6.0 0.00 0.00 0.02 79 1012.9
20260507223646 78 1 2.0 5.0 0.00 0.00 0.02 79 1012.9
20260507223147 78 36 4.0 7.0 0.00 0.00 0.02 78 1012.5
20260507222646 78 11 4.0 6.0 0.00 0.00 0.02 79 1012.5
20260507222146 77 14 2.0 6.0 0.00 0.00 0.02 80 1012.5
20260507221647 78 330 2.0 4.0 0.00 0.00 0.02 79 1012.5
20260507221146 77 352 2.0 3.0 0.00 0.00 0.02 80 1012.5
20260507220646 77 12 4.0 5.0 0.00 0.00 0.02 81 1012.9
20260507220147 77 307 4.0 6.0 0.00 0.00 0.02 80 1012.5
20260507215646 77 355 2.0 6.0 0.00 0.00 0.02 79 1012.5
20260507215148 77 354 3.0 5.0 0.00 0.00 0.02 80 1012.5
20260507214646 76 17 0.0 4.0 0.00 0.00 0.02 82 1012.2
20260507214147 75 312 1.0 5.0 0.00 0.00 0.02 82 1012.5
20260507213646 75 269 0.0 3.0 0.00 0.00 0.02 82 1012.9
20260507213147 76 340 2.0 5.0 0.00 0.00 0.02 82 1012.9
20260507212647 75 9 3.0 4.0 0.00 0.00 0.02 83 1012.2
20260507212150 75 32 0.0 4.0 0.00 0.00 0.02 83 1012.5
20260507211647 75 49 2.0 3.0 0.00 0.00 0.02 83 1012.9
20260507211146 75 332 1.0 3.0 0.00 0.00 0.02 83 1012.9
20260507210646 75 14 3.0 3.0 0.00 0.00 0.02 84 1012.5
20260507210147 74 38 3.0 4.0 0.00 0.00 0.02 84 1012.5
20260507205646 74 47 2.0 5.0 0.00 0.00 0.02 84 1012.5
20260507205147 74 62 1.0 3.0 0.00 0.00 0.02 85 1012.9
20260507204647 74 14 2.0 5.0 0.00 0.00 0.02 85 1012.9
20260507204147 73 39 2.0 7.0 0.00 0.00 0.02 86 1012.9
20260507203646 73 300 3.0 6.0 0.00 0.00 0.02 86 1012.9
20260507203146 73 40 3.0 8.0 0.00 0.00 0.02 86 1012.9
20260507202647 73 2 2.0 3.0 0.00 0.00 0.02 87 1012.9
20260507202147 73 309 3.0 5.0 0.00 0.00 0.02 87 1012.9
20260507201647 73 9 3.0 6.0 0.00 0.00 0.02 88 1012.9
20260507201146 73 343 3.0 8.0 0.00 0.00 0.02 87 1012.9
20260507200646 73 351 4.0 8.0 0.00 0.00 0.02 88 1012.9
20260507200147 73 305 3.0 6.0 0.00 0.00 0.02 88 1013.2
20260507195646 73 352 6.0 9.0 0.00 0.00 0.02 87 1012.9
20260507195146 73 39 5.0 5.0 0.00 0.00 0.02 86 1012.9
20260507194649 74 334 4.0 6.0 0.00 0.00 0.02 85 1012.9
20260507194146 74 285 3.0 5.0 0.00 0.00 0.02 86 1012.9
20260507193647 74 0 2.0 5.0 0.00 0.00 0.02 85 1012.9
20260507193147 74 57 5.0 6.0 0.00 0.00 0.02 85 1012.9
20260507192647 74 62 2.0 5.0 0.00 0.00 0.02 87 1013.2
20260507192146 73 12 2.0 7.0 0.00 0.00 0.02 87 1013.5
20260507191649 73 345 5.0 5.0 0.00 0.00 0.02 87 1013.2
20260507191146 73 338 4.0 5.0 0.00 0.00 0.02 87 1012.9
20260507190647 73 47 2.0 5.0 0.00 0.00 0.02 88 1013.5
20260507190146 73 2 3.0 6.0 0.00 0.00 0.02 88 1013.2
20260507185647 73 25 4.0 7.0 0.00 0.00 0.02 88 1013.2
20260507185147 72 331 5.0 8.0 0.00 0.00 0.02 88 1013.5
20260507184201 72 49 4.0 7.0 0.00 0.00 0.02 88 1013.5
20260507183649 72 7 4.0 6.0 0.00 0.00 0.02 88 1013.5
20260507183147 72 333 4.0 7.0 0.00 0.00 0.02 90 1013.5
20260507182649 72 32 3.0 9.0 0.00 0.00 0.02 91 1013.5
20260507182146 71 343 5.0 9.0 0.00 0.00 0.02 92 1013.5
20260507181646 71 12 3.0 7.0 0.00 0.00 0.02 93 1013.5
20260507181148 71 44 7.0 8.0 0.00 0.00 0.02 95 1013.9
20260507180648 71 357 3.0 9.0 0.00 0.00 0.02 94 1013.9
20260507180146 71 32 5.0 10.0 0.00 0.00 0.02 93 1013.9
20260507175646 71 352 1.0 7.0 0.00 0.00 0.02 93 1013.9
20260507175146 71 22 4.0 6.0 0.00 0.00 0.02 93 1013.9
20260507174647 71 357 6.0 7.0 0.00 0.00 0.02 94 1013.9
20260507174147 71 349 4.0 7.0 0.00 0.00 0.02 94 1013.9
20260507173647 70 350 4.0 7.0 0.00 0.00 0.02 95 1013.9
20260507173147 70 347 6.0 9.0 0.00 0.00 0.02 94 1013.9
20260507172647 70 27 2.0 9.0 0.00 0.00 0.02 95 1013.9
20260507172146 70 329 6.0 8.0 0.00 0.00 0.02 95 1013.9
20260507171647 70 12 6.0 10.0 0.00 0.00 0.02 95 1014.2
20260507171147 70 334 4.0 9.0 0.00 0.00 0.02 95 1014.2
20260507170647 70 354 6.0 8.0 0.00 0.00 0.02 95 1014.2
20260507170146 71 3 5.0 10.0 0.00 0.00 0.02 95 1014.2
20260507165646 71 354 7.0 9.0 0.00 0.00 0.02 94 1014.2
20260507165147 71 349 3.0 7.0 0.00 0.00 0.02 94 1014.2
20260507164647 71 323 5.0 8.0 0.00 0.00 0.02 94 1014.2
20260507164147 71 0 5.0 7.0 0.00 0.00 0.02 95 1014.2
20260507163647 71 328 3.0 7.0 0.00 0.00 0.02 95 1014.2
20260507163146 71 349 5.0 10.0 0.00 0.00 0.02 96 1014.2
20260507162646 71 336 2.0 6.0 0.00 0.00 0.02 96 1014.2
20260507162147 71 23 4.0 7.0 0.00 0.00 0.02 97 1014.2
20260507161646 71 347 3.0 6.0 0.00 0.00 0.02 97 1014.2
20260507161146 71 15 4.0 9.0 0.00 0.00 0.02 97 1013.9
20260507160646 71 42 3.0 6.0 0.00 0.00 0.02 98 1014.2
20260507160147 71 338 3.0 5.0 0.00 0.00 0.02 98 1014.2
20260507155646 70 29 2.0 7.0 0.00 0.00 0.02 98 1014.2
20260507155147 70 40 2.0 9.0 0.00 0.00 0.02 98 1014.2
20260507154646 71 5 3.0 11.0 0.00 0.00 0.02 99 1014.2
20260507154146 71 21 3.0 5.0 0.00 0.00 0.02 99 1014.2
20260507153647 71 312 6.0 7.0 0.00 0.00 0.02 99 1014.2
20260507153148 71 314 5.0 8.0 0.00 0.00 0.02 99 1014.2
20260507152648 71 355 3.0 8.0 0.00 0.00 0.02 99 1013.9
20260507152146 70 3 6.0 7.0 0.00 0.00 0.02 99 1014.2
20260507151646 71 1 6.0 9.0 0.00 0.00 0.02 99 1013.9
20260507151147 71 338 5.0 10.0 0.00 0.00 0.02 99 1014.2
20260507150646 71 358 3.0 10.0 0.00 0.00 0.02 99 1013.9
20260507150147 71 332 6.0 13.0 0.00 0.00 0.02 99 1013.9
20260507145647 72 350 3.0 8.0 0.00 0.00 0.02 99 1013.9
20260507145147 72 13 1.0 9.0 0.00 0.00 0.02 99 1013.9
20260507144646 72 336 7.0 8.0 0.00 0.00 0.02 99 1013.5
20260507144147 72 340 5.0 8.0 0.00 0.00 0.02 99 1013.5
20260507143647 73 359 4.0 9.0 0.00 0.00 0.02 99 1013.5
20260507143147 73 343 4.0 7.0 0.00 0.00 0.02 99 1013.5
20260507142647 73 338 4.0 7.0 0.00 0.00 0.02 99 1013.5
20260507142146 73 357 5.0 6.0 0.00 0.00 0.02 99 1013.5
20260507141647 73 339 5.0 8.0 0.02 0.00 0.02 99 1013.5
20260507141147 73 324 4.0 6.0 0.02 0.00 0.02 99 1013.5
20260507140650 73 311 2.0 7.0 0.05 0.00 0.02 99 1013.5
20260507140147 73 336 2.0 8.0 0.07 0.00 0.02 99 1013.5
20260507135647 73 300 5.0 9.0 0.05 0.00 0.01 99 1013.5
20260507135147 74 356 4.0 11.0 0.02 0.00 0.00 99 1013.2
20260507134648 74 342 4.0 10.0 0.00 0.00 0.00 98 1013.5
20260507134147 75 319 5.0 8.0 0.00 0.00 0.00 97 1013.5
20260507133646 77 329 4.0 11.0 0.00 0.00 0.00 97 1013.2
20260507133147 77 229 3.0 7.0 0.00 0.00 0.00 98 1013.2
20260507132647 77 190 4.0 8.0 0.00 0.00 0.00 97 1012.9
20260507132146 77 201 7.0 9.0 0.00 0.00 0.00 97 1012.9
20260507131648 77 220 7.0 7.0 0.00 0.00 0.00 97 1012.9
20260507131146 77 198 4.0 8.0 0.00 0.00 0.00 97 1013.2
20260507130647 77 212 5.0 7.0 0.00 0.00 0.00 97 1013.2
20260507130147 77 193 3.0 8.0 0.00 0.00 0.00 97 1012.9
20260507125648 77 210 5.0 6.0 0.00 0.00 0.00 97 1012.9
20260507125147 77 222 5.0 9.0 0.00 0.00 0.00 97 1012.9
20260507124647 77 218 6.0 7.0 0.00 0.00 0.00 97 1012.9
20260507124147 77 188 5.0 8.0 0.00 0.00 0.00 97 1012.5
20260507123647 77 179 6.0 11.0 0.00 0.00 0.00 97 1012.5
20260507123146 77 179 5.0 7.0 0.00 0.00 0.00 97 1012.5
20260507122646 77 170 3.0 9.0 0.00 0.00 0.00 97 1012.5
20260507122147 77 188 3.0 9.0 0.00 0.00 0.00 97 1012.5
20260507121649 77 165 3.0 6.0 0.00 0.00 0.00 97 1012.5
20260507121148 77 192 2.0 5.0 0.00 0.00 0.00 97 1012.5
20260507120646 77 186 7.0 8.0 0.00 0.00 0.00 97 1012.5
20260507120146 77 186 5.0 7.0 0.00 0.00 0.00 97 1012.5
20260507115647 77 201 4.0 8.0 0.00 0.00 0.00 97 1012.2
20260507115146 77 190 5.0 7.0 0.00 0.00 0.00 98 1011.9
20260507114646 77 193 5.0 7.0 0.00 0.00 0.00 98 1012.2
20260507114146 77 159 8.0 9.0 0.00 0.00 0.00 98 1011.9
20260507113647 77 178 8.0 10.0 0.00 0.00 0.00 98 1011.9
20260507113147 77 171 5.0 6.0 0.00 0.00 0.00 98 1011.9
20260507112646 77 179 5.0 8.0 0.00 0.00 0.00 97 1011.9
20260507112147 77 181 4.0 5.0 0.00 0.00 0.00 97 1011.9
20260507111648 77 160 6.0 7.0 0.00 0.00 0.00 97 1011.5
20260507111147 77 206 3.0 6.0 0.00 0.00 0.00 97 1011.5
20260507110646 77 198 4.0 6.0 0.00 0.00 0.00 97 1011.2
20260507110147 77 176 4.0 6.0 0.00 0.00 0.00 97 1011.2
20260507105646 77 179 3.0 6.0 0.00 0.00 0.00 97 1011.2
20260507105150 77 178 6.0 8.0 0.00 0.00 0.00 97 1011.5
20260507104646 77 175 5.0 7.0 0.00 0.00 0.00 96 1011.5
20260507104147 77 179 4.0 5.0 0.00 0.00 0.00 96 1011.2
20260507103646 77 185 4.0 5.0 0.00 0.00 0.00 96 1011.2
20260507103148 77 195 2.0 5.0 0.00 0.00 0.00 96 1011.2
20260507102646 77 168 5.0 7.0 0.00 0.00 0.00 97 1011.2
20260507102147 77 162 5.0 7.0 0.00 0.00 0.00 96 1011.2
20260507101646 77 185 5.0 5.0 0.00 0.00 0.00 96 1011.2
20260507101147 77 161 4.0 5.0 0.00 0.00 0.00 96 1011.2
20260507100647 77 173 5.0 5.0 0.00 0.00 0.00 96 1010.8
20260507100147 77 196 2.0 5.0 0.00 0.00 0.00 96 1011.2
20260507095646 77 173 3.0 6.0 0.00 0.00 0.00 96 1011.2
20260507095146 77 151 1.0 4.0 0.00 0.00 0.00 96 1010.8
20260507094646 77 181 3.0 5.0 0.00 0.00 0.00 95 1010.8
20260507094147 77 171 6.0 6.0 0.00 0.00 0.00 95 1010.8
20260507093646 77 189 4.0 6.0 0.00 0.00 0.00 95 1010.8
20260507093146 77 218 2.0 4.0 0.00 0.00 0.00 95 1010.8
20260507092648 77 183 3.0 4.0 0.00 0.00 0.00 96 1010.8
20260507092146 77 196 2.0 4.0 0.00 0.00 0.00 96 1011.2
20260507091647 77 189 2.0 5.0 0.00 0.00 0.00 96 1010.8
20260507091147 77 194 2.0 5.0 0.00 0.00 0.00 95 1010.8
20260507090647 77 207 2.0 4.0 0.00 0.00 0.00 95 1011.2
20260507090147 77 253 4.0 4.0 0.00 0.00 0.00 95 1011.2
20260507085647 77 246 3.0 5.0 0.00 0.00 0.00 95 1010.8
20260507085147 77 195 3.0 5.0 0.00 0.00 0.00 95 1010.8
20260507084648 77 202 4.0 5.0 0.00 0.00 0.00 95 1010.8
20260507084147 77 195 4.0 5.0 0.00 0.00 0.00 95 1010.8
20260507083646 77 229 5.0 7.0 0.00 0.00 0.00 95 1010.5
20260507083147 77 220 2.0 7.0 0.00 0.00 0.00 95 1010.8
20260507082647 77 195 4.0 6.0 0.00 0.00 0.00 95 1010.5
20260507082147 77 192 3.0 5.0 0.00 0.00 0.00 95 1010.8
20260507081647 77 211 4.0 6.0 0.00 0.00 0.00 95 1010.8
20260507081146 77 168 4.0 4.0 0.00 0.00 0.00 96 1010.8